Location: ?????????
(53.2086°N, 54.0693°E)
Time: 08:57:11
(UTC+00:00)

Daily predictions for brighter satellites

Satellite Brightness Start Highest point End
(mag) Time Altitude Azimuth Time Altitude Azimuth Time Altitude Azimuth
Cosmos 2369 Rocket 3.9 12:41:45 10° NNW 12:44:50 15° NNE 12:47:56 10° NE
Cosmos 1782 3.3 12:41:33 10° SSE 12:45:18 40° E 12:49:03 10° NNE
ISS -3.0 12:43:06 10° W 12:46:24 55° SSW 12:49:42 10° ESE
Cosmos 1606 2.7 12:42:54 10° S 12:46:41 87° W 12:50:32 10° N
Cosmos 1346 Rocket 2.9 12:43:17 10° N 12:47:11 57° ENE 12:51:08 10° SSE
Helios 1A Rocket 2.9 12:43:14 10° SSE 12:47:20 74° ENE 12:51:26 10° NNW
Cosmos 1980 Rocket 3.6 12:42:37 10° WSW 12:47:40 31° NW 12:52:45 10° NNE
Radarsat Rocket 4.0 12:41:44 10° SSE 12:47:50 76° ENE 12:53:41 10° NNW
SMAP 3.6 12:46:16 10° SE 12:50:32 37° ENE 12:54:48 10° N
Cosmos 1315 Rocket 3.5 12:47:47 10° SSE 12:51:26 35° E 12:55:09 10° NNE
METEOR-M 4.4 12:48:30 10° S 12:53:49 75° WSW 12:59:12 10° NNW
Cosmos 2333 Rocket 3.1 12:49:59 10° SSE 12:55:01 32° ESE 13:00:05 10° NE
NOSS 2-2 (E) 3.6 12:52:54 10° WSW 12:56:41 68° NW 13:01:20 10° NE
CZ-4B R/B 1.5 12:53:52 10° NNE 12:57:25 87° WNW 13:00:55 10° SSW
ALOS 2.7 12:53:49 10° S 12:58:28 71° WSW 13:03:10 10° NNW
Meteor 1-11 Rocket 4.2 12:53:11 10° N 12:58:51 42° ENE 13:04:29 10° SE
Cosmos 304 Rocket 3.7 12:54:33 10° NNW 12:59:23 77° ENE 13:04:12 10° SSE
Cosmos 2279 Rocket 4.0 12:53:21 10° N 12:59:35 64° ENE 13:05:48 10° SSE
ATLAS 2AS CENTAUR R/B 3.2 12:52:18 10° SSW 13:00:15 72° SE 13:08:12 10° NE
Cosmos 1400 Rocket 3.0 12:56:56 10° SSW 13:01:02 80° WNW 13:05:07 10° NNE
Okean O Rocket 1.8 12:57:46 10° SSE 13:02:07 79° WSW 13:06:30 10° NNW
Cosmos 494 Rocket 4.1 12:57:25 10° S 13:02:37 65° ESE 13:07:51 10° NNE
Cosmos 2237 Rocket 3.8 12:59:40 10° SE 13:02:59 16° E 13:06:13 10° ENE
Cosmos 1634 Rocket 4.2 12:59:16 10° NNW 13:05:28 81° W 13:11:39 10° S
Cosmos 2322 Rocket 2.7 13:00:40 10° SW 13:06:12 57° NW 13:11:48 10° NNE
Cosmos 2228 Rocket 3.6 13:05:53 10° SSW 13:10:26 66° WNW 13:15:03 10° N
SL-16 R/B 3.0 13:07:27 10° WSW 13:12:55 48° NW 13:18:26 10° NNE
Cosmos 1269 Rocket 4.1 13:07:45 10° SSW 13:13:00 66° ESE 13:18:17 10° NNE
Okean-O 3.2 13:12:18 10° SE 13:16:20 36° ENE 13:20:25 10° N
Cosmos 2219 Rocket 2.6 13:12:59 10° S 13:18:17 45° ESE 13:23:29 11° NE
Meteor 1-26 Rocket 4.5 13:13:33 10° SSW 13:19:23 78° WNW 13:25:05 10° NNE
CORIOLIS 4.2 13:14:35 10° SE 13:19:55 58° ENE 13:25:17 10° N
Cosmos 1844 Rocket 4.3 13:14:51 10° NW 13:20:01 40° WSW 13:25:10 10° S
Cosmos 2344 4.4 13:12:31 10° WNW 13:20:19 46° N 13:29:28 13° ENE
Cosmos 1707 Rocket 3.7 13:17:41 10° S 13:22:04 59° E 13:26:29 10° NNE
Cosmos 1812 3.7 13:19:49 10° SSE 13:23:08 27° E 13:26:04 12° NE
RESURS DK-1 3.2 13:21:49 10° S 13:25:29 32° ESE 13:28:08 16° ENE
Cosmos 1302 Rocket 4.4 13:20:21 10° NNW 13:25:37 69° WSW 13:30:50 10° SSE
Feng Yun 1-1 Rocket 4.1 13:21:56 10° SSE 13:27:19 77° ENE 13:32:45 10° NNW
AQUARIUS 4.1 13:23:50 10° SSE 13:28:17 67° ENE 13:32:47 10° N
SeaSat 1 3.9 13:28:45 15° ENE 13:30:47 19° NNE 13:34:14 10° NNW
USA 215 3.3 13:24:57 14° ENE 13:30:49 75° SSE 13:37:22 10° SW
Cosmos 1943 Rocket 3.5 13:27:59 10° NNW 13:32:18 21° NNE 13:34:45 17° ENE
BREEZE-M R/B 3.7 13:26:16 10° WSW 13:32:36 52° S 13:35:20 15° E
Cosmos 2297 4.3 13:27:38 10° NNW 13:32:56 37° NE 13:38:11 10° ESE
STARLINK-67 3.1 13:33:11 10° WSW 13:35:53 49° SSE 13:37:17 23° E
Cosmos 1908 Rocket 4.1 13:32:52 10° N 13:36:57 34° ENE 13:40:58 10° SE
Cosmos 2251 Rocket 4.2 13:33:57 10° SSE 13:38:44 36° ESE 13:42:17 16° NE
Cosmos 1340 4.3 13:36:07 10° NNW 13:39:39 37° W 13:43:09 10° SSW
Cosmos 1500 3.0 13:36:01 10° N 13:39:49 68° ENE 13:43:33 10° SSE
COSMO-SKYMED 1 3.8 13:38:45 19° ENE 13:39:51 21° E 13:43:10 10° SE
IRS-1C Rocket 4.3 13:37:48 10° SSE 13:43:05 78° WSW 13:48:24 10° NNW
CSL-04 Rocket 4.2 13:39:00 10° ESE 13:43:41 34° ENE 13:48:26 10° N
Cosmos 1536 2.9 13:43:14 10° N 13:47:13 54° ENE 13:51:09 10° SSE
COSMOS 2428 2.7 13:41:42 10° SSW 13:47:20 68° ESE 13:52:04 15° NE
NOSS 2-2 (D) 4.3 13:43:55 10° W 13:47:36 41° NNW 13:50:44 17° NE
Meteor 1-5 Rocket 4.2 13:42:03 10° NNW 13:47:42 83° WSW 13:53:07 10° S
Lacrosse 4 Rocket 3.7 13:48:07 10° N 13:49:08 11° N 13:50:03 10° NNE
YAOGAN 6 3.0 13:48:13 10° SE 13:51:32 38° ENE 13:54:54 10° N
Cosmos 1689 Rocket 4.0 13:48:53 10° N 13:51:37 30° WNW 13:54:20 10° SW
YAOGAN 1 3.2 13:48:50 10° SE 13:52:42 32° ENE 13:56:33 10° N
Cosmos 1441 Rocket 3.9 13:49:24 10° N 13:52:53 30° ENE 13:54:48 19° ESE
H-2A R/B 2.9 13:49:25 10° S 13:53:06 72° WSW 13:56:49 10° NNW
STARLINK-46 4.0 13:51:22 10° SSW 13:53:38 24° SSE 13:54:02 23° SE
CSL-04 Debris 4.5 13:51:57 10° SE 13:57:04 43° ENE 14:02:11 10° N
PSLV R/B 4.0 13:53:03 10° NNE 13:57:15 79° WNW 14:01:23 10° SSW
Envisat 2.9 13:54:00 10° SSE 13:59:04 75° ENE 14:04:10 10° NNW
NOSS 3-1 (C) 4.4 13:53:50 10° NW 14:00:11 41° NNE 14:04:28 23° ENE
CZ-4 R/B 1.6 13:56:36 10° SE 14:00:17 41° ENE 14:03:57 10° N
Cosmos 1733 Rocket 3.5 13:58:37 10° NNW 14:02:57 65° W 14:07:18 10° S
Lacrosse 5 rocket 2.1 14:00:12 10° SSW 14:04:07 37° SE 14:05:18 30° ESE
Cosmos 2333 4.5 13:59:52 10° SW 14:05:36 71° NW 14:10:26 15° NNE
Cosmos 1867 3.9 14:00:56 10° NW 14:06:12 44° NNE 14:08:38 28° E
Okean 1-7 4.3 14:02:49 10° SE 14:05:20 23° ESE 14:05:20 23° ESE
NOSS 5 (C) 4.2 14:04:08 10° NW 14:07:14 86° NE 14:09:27 22° SE
FengYun 1-2 T 4.1 14:02:16 10° SSE 14:07:43 69° ENE 14:13:13 10° NNW
USA 229 DEB 4.3 14:01:09 10° NW 14:07:47 43° NNE 14:11:28 26° ENE
USA 229 4.3 14:01:15 10° NW 14:07:53 42° NNE 14:11:32 26° ENE
Cosmos 1992 Rocket 4.2 14:05:04 10° NNW 14:10:18 72° WSW 14:15:29 10° SSE
Cosmos 2322 4.2 14:05:28 10° SW 14:11:06 58° NW 14:15:49 15° NNE
SL-4 R/B 2.3 14:09:03 10° SW 14:12:43 49° SSE 14:13:54 36° ESE
NOSS 3-1 (A) 4.4 14:06:37 10° NW 14:12:51 39° NNE 14:16:23 26° ENE
NOSS 7 (A) 4.5 14:09:56 10° SW 14:13:01 68° SE 14:13:15 63° E
NOSS 3-4 (A) 3.6 14:07:14 10° WSW 14:13:20 73° NW 14:17:35 23° NE
NOSS 3-4 (C) 3.6 14:07:21 10° SW 14:13:26 74° NW 14:17:41 23° NE
Cosmos 2278 Rocket 2.9 14:10:26 10° NW 14:15:59 56° WSW 14:21:29 10° S
NOAA 11 4.4 14:12:11 10° SE 14:17:21 46° ENE 14:22:36 10° N
Genesis I 3.1 14:14:16 10° NW 14:18:12 69° NE 14:19:17 44° ESE
COSMOS 2455 4.1 14:13:04 10° W 14:18:29 33° NNW 14:22:27 17° NNE
COBE Rocket 3.9 14:16:45 10° N 14:21:25 75° WNW 14:26:04 10° SSW
NOSS 0 Rocket 3.9 14:16:08 10° SSW 14:22:17 66° ESE 14:25:47 27° NE
ISS -1.4 14:20:05 10° W 14:22:43 21° SSW 14:25:11 11° SSE
Sich 1 Rocket 3.9 14:18:47 10° N 14:22:32 41° NE 14:22:32 41° NE
Cosmos 1666 2.5 14:20:42 10° N 14:24:29 88° ENE 14:28:13 10° S
Cosmos 2360 Rocket 3.5 14:20:21 10° WSW 14:25:31 35° NW 14:29:55 14° NNE
BREEZE-M DEB (TANK) 4.0 14:21:15 10° W 14:25:47 27° SW 14:27:29 16° SSE
SKYMED 2 3.6 14:27:26 46° ENE 14:28:20 55° E 14:32:35 10° S
Cosmos 1092 Rocket 3.9 14:23:38 10° S 14:29:53 68° E 14:36:06 10° NNE
Cosmos 2369 Rocket 2.9 14:25:37 10° NNW 14:30:41 33° NE 14:30:50 33° NE
NOAA 15 4.4 14:26:02 10° SSE 14:31:17 76° ENE 14:36:33 10° NNW
Cosmos 1782 Rocket 3.4 14:27:06 10° N 14:31:27 63° ENE 14:35:46 10° SSE
CZ-4 R/B 4.4 14:27:57 10° SSE 14:32:07 87° WSW 14:36:20 10° NNW
Cosmos 1980 Rocket 4.3 14:30:30 10° NW 14:33:36 15° NNW 14:36:16 11° NNE
SL-16 R/B 3.2 14:29:26 10° SSE 14:33:09 27° SE 14:33:09 27° SE
Cosmos 921 Rocket 2.8 14:30:42 10° NNW 14:34:56 68° ENE 14:35:52 51° SE
Cosmos 2333 Rocket 2.7 14:33:21 10° SW 14:39:01 59° NW 14:42:44 22° NNE
Exosat Rocket 3.5 14:35:51 10° SSW 14:41:02 83° WNW 14:43:21 33° NNE
Ariane Rocket 3.4 14:43:04 42° NE 14:43:04 42° NE 14:47:02 10° N
Cosmos 1862 Rocket 4.3 14:39:41 10° SSW 14:43:57 52° WNW 14:47:38 14° N
Cosmos 2242 Rocket 3.7 14:40:47 10° SSW 14:45:21 76° W 14:48:07 24° N
Cosmos 2237 Rocket 2.1 14:40:26 10° SSW 14:46:07 77° ESE 14:48:05 43° NE
Cosmos 1703 Rocket 3.4 14:42:06 10° S 14:46:32 71° E 14:46:39 70° E
Cosmos 292 Rocket 4.4 14:45:00 10° NNW 14:49:46 56° WSW 14:54:31 10° S
Cosmos 2322 Rocket 4.2 14:47:26 10° WNW 14:51:30 20° NNW 14:54:39 13° N
Meteor 1-27 Rocket 4.2 14:45:57 10° SSW 14:51:39 62° WNW 14:57:30 10° N
ATLAS 2AS CENTAUR R/B 3.6 14:43:55 10° WSW 14:51:47 53° NNW 14:55:56 28° NE
Okean-O 4.3 14:48:49 10° SSW 14:52:52 34° W 14:56:55 10° NNW
S3M 4.0 14:50:16 10° N 14:56:27 56° ENE 14:57:35 49° ESE
SL-16 R/B 4.3 14:54:40 10° WNW 14:58:29 18° NNW 15:01:15 13° N
Cosmos 1812 4.4 14:55:20 10° SW 14:58:50 32° WNW 15:01:12 17° NNW
Cosmos 2219 Rocket 3.1 14:56:56 10° WSW 15:02:18 44° NW 15:05:13 25° N
RESURS DK-1 3.4 14:59:33 10° WSW 15:03:28 39° NW 15:04:03 37° NNW
SeaSat 1 2.8 15:08:33 51° N 15:08:33 51° N 15:12:27 10° NNW
Cosmos 1553 Rocket 3.9 15:04:27 10° N 15:10:51 86° E 15:17:16 10° S
USA 215 3.3 15:12:17 52° NE 15:13:52 69° N 15:20:21 10° W
Cosmos 1428 Rocket 4.3 15:08:58 10° S 15:15:09 88° E 15:19:15 23° N
COSMO-SKYMED 1 3.1 15:15:58 53° NW 15:16:20 55° WNW 15:20:35 10° SSW
Meteor 1-18 Rocket 4.4 15:10:43 10° S 15:15:22 58° SSE 15:15:22 58° SSE
Cosmos 1980 3.9 15:11:06 10° SW 15:16:44 67° NW 15:18:06 50° N
Cosmos 1943 Rocket 2.4 15:11:30 10° NNW 15:16:18 57° N 15:16:18 57° N
Cosmos 2297 4.2 15:11:48 10° NW 15:17:25 57° WSW 15:21:16 20° S
Cosmos 2251 Rocket 4.4 15:15:51 10° SW 15:20:56 46° NW 15:22:48 33° N
CSL-04 Rocket 4.5 15:18:48 10° S 15:23:53 48° W 15:29:03 10° NNW
YAOGAN 1 4.0 15:24:45 10° SSW 15:28:46 36° W 15:32:47 10° NNW
Lacrosse 4 Rocket 4.2 15:26:20 10° NNW 15:26:21 10° NNW 15:26:21 10° NNW
H-2A R/B 4.3 15:35:07 13° N 15:35:07 13° N 15:35:41 10° N
COSMOS 2428 4.1 15:26:58 10° WSW 15:32:04 33° NW 15:34:05 26° N
Cosmos 2026 Rocket 4.2 15:26:06 10° SSW 15:32:08 66° WNW 15:36:36 19° N
CZ-4 R/B 3.7 15:32:22 10° SSW 15:35:30 23° W 15:38:37 10° NW
Cosmos 2344 4.1 15:27:30 10° NW 15:36:27 74° NE 15:39:31 53° ESE
Lacrosse 5 rocket 3.4 15:39:00 10° WSW 15:40:58 26° W 15:40:58 26° W
Cosmos 1867 4.2 15:44:39 10° NW 15:49:20 52° W 15:49:20 52° W
NOSS 3-1 (C) 3.8 15:44:52 10° NW 15:51:54 79° NNE 15:51:54 79° NNE
SL-4 R/B 4.5 15:48:14 10° W 15:49:30 20° W 15:49:30 20° W
USA 229 DEB 3.8 15:52:23 10° NW 15:58:55 76° NNW 15:58:55 76° NNW
USA 229 3.8 15:52:30 10° NW 15:58:59 75° NNW 15:58:59 75° NNW
NOSS 3-1 (A) 4.1 15:57:47 10° NW 16:03:50 63° N 16:03:50 63° N
Cosmos 2360 Rocket 4.4 16:08:04 10° NW 16:11:19 15° NNW 16:11:41 15° NNW
Cosmos 2369 Rocket 3.6 16:09:33 10° NW 16:12:38 33° NW 16:12:38 33° NW
SL-16 R/B 3.8 16:12:24 10° SW 16:15:06 29° SW 16:15:06 29° SW
Cosmos 2333 Rocket 4.2 16:20:17 10° WNW 16:24:33 21° NNW 16:24:45 21° NNW
Cosmos 2237 Rocket 3.9 16:25:49 10° W 16:29:56 29° NW 16:29:56 29° NW
ATLAS 2AS CENTAUR R/B 4.0 16:36:59 10° WNW 16:43:22 37° NNW 16:43:22 37° NNW
Cosmos 1943 Rocket 4.5 16:55:48 10° NW 16:57:51 19° WNW 16:57:51 19° WNW
CZ-4C R/B 3.9 23:44:31 41° ESE 23:44:31 41° ESE 23:49:30 10° SE
